User: anonymous   Login
Location: Unspecified
(0.0000°N, 0.0000°E)
Time: 18:27:02
(UTC+00:00)
Language:

Courier 1B Rocket - Orbit

View from above orbital plane
View from above orbital plane
View from above satellite
View from above satellite

Ground track
Ground track

The orbit data is extracted from the following two-line orbital elements,

1 00059U 60013B   24140.14019619  .00000221  00000-0  17961-3 0  9998
2 00059  28.2490  63.5774 0189020  63.3821 298.5957 13.53073380140289
Epoch (UTC): 19 May 2024 03:21:52
Eccentricity: 0.0189020
inclination: 28.2490°
perigee height: 920 km
apogee height: 1201 km
right ascension of ascending node: 63.5774°
argument of perigee: 63.3821°
revolutions per day: 13.53073380
mean anomaly at epoch: 298.5957°
orbit number at epoch: 14028

The dashed part of the orbit path shows where the satellite is in the earth's shadow,  

DLR